Time,TemperatureF,DewpointF,PressureIn,WindDirection,WindDirectionDegrees,WindSpeedMPH,WindSpeedGustMPH,Humidity,HourlyPrecipIn,Conditions,Clouds,dailyrainin,SoftwareType,DateUTC
2013-02-19 00:02:00,19.0,13.0,-100.00,WSW,245,8.0,24.0,75,-99.99,,,-99.99,,2013-02-19 06:02:00,
2013-02-19 00:12:00,19.0,11.0,-100.00,WSW,240,11.0,23.0,71,-99.99,,,-99.99,,2013-02-19 06:12:00,
2013-02-19 00:22:00,19.0,12.0,-100.00,WSW,245,11.0,26.0,74,-99.99,,,-99.99,,2013-02-19 06:22:00,
2013-02-19 00:32:00,19.0,12.0,-100.00,WSW,245,11.0,26.0,74,-99.99,,,-99.99,,2013-02-19 06:32:00,
2013-02-19 00:42:00,19.0,13.0,-100.00,WSW,245,5.0,20.0,77,-99.99,,,-99.99,,2013-02-19 06:42:00,
2013-02-19 00:52:00,19.0,14.0,-100.00,WSW,240,4.0,12.0,80,-99.99,,,-99.99,,2013-02-19 06:52:00,
2013-02-19 01:01:00,19.0,14.0,-100.00,WSW,240,4.0,12.0,80,-99.99,,,-99.99,,2013-02-19 07:01:00,
2013-02-19 01:11:00,18.0,11.0,-100.00,WSW,245,14.0,32.0,74,-99.99,,,-99.99,,2013-02-19 07:11:00,
2013-02-19 01:22:00,17.0,9.0,-100.00,WSW,240,14.0,25.0,71,-99.99,,,-99.99,,2013-02-19 07:22:00,
2013-02-19 01:32:00,17.0,9.0,-100.00,WSW,240,14.0,25.0,71,-99.99,,,-99.99,,2013-02-19 07:32:00,
2013-02-19 01:42:00,17.0,10.0,-100.00,SW,235,9.0,21.0,72,-99.99,,,-99.99,,2013-02-19 07:42:00,
2013-02-19 01:52:00,18.0,11.0,-100.00,West,265,9.0,21.0,74,-99.99,,,-99.99,,2013-02-19 07:52:00,
2013-02-19 02:02:00,18.0,11.0,-100.00,West,265,9.0,21.0,74,-99.99,,,-99.99,,2013-02-19 08:02:00,
2013-02-19 02:11:00,18.0,12.0,-100.00,WSW,240,6.0,26.0,77,-99.99,,,-99.99,,2013-02-19 08:11:00,
2013-02-19 02:21:00,17.0,8.0,-100.00,West,260,10.0,31.0,69,-99.99,,,-99.99,,2013-02-19 08:21:00,
2013-02-19 02:32:00,17.0,8.0,-100.00,West,260,10.0,31.0,69,-99.99,,,-99.99,,2013-02-19 08:32:00,
2013-02-19 02:42:00,16.0,7.0,-100.00,WSW,250,15.0,29.0,67,-99.99,,,-99.99,,2013-02-19 08:42:00,
2013-02-19 02:52:00,16.0,8.0,-100.00,WSW,250,9.0,24.0,70,-99.99,,,-99.99,,2013-02-19 08:52:00,
2013-02-19 03:01:00,16.0,8.0,-100.00,WSW,250,9.0,24.0,70,-99.99,,,-99.99,,2013-02-19 09:01:00,
2013-02-19 03:11:00,16.0,9.0,-100.00,SW,235,11.0,24.0,71,-99.99,,,-99.99,,2013-02-19 09:11:00,
2013-02-19 03:22:00,15.0,6.0,-100.00,WSW,245,14.0,31.0,65,-99.99,,,-99.99,,2013-02-19 09:22:00,
2013-02-19 03:32:00,15.0,6.0,-100.00,WSW,245,14.0,31.0,65,-99.99,,,-99.99,,2013-02-19 09:32:00,
2013-02-19 03:42:00,15.0,6.0,-100.00,WSW,250,11.0,22.0,68,-99.99,,,-99.99,,2013-02-19 09:42:00,
2013-02-19 03:53:00,15.0,6.0,-100.00,West,280,9.0,28.0,69,-99.99,,,-99.99,,2013-02-19 09:53:00,
2013-02-19 04:02:00,15.0,6.0,-100.00,West,280,9.0,28.0,69,-99.99,,,-99.99,,2013-02-19 10:02:00,
2013-02-19 04:11:00,15.0,7.0,-100.00,West,260,9.0,25.0,71,-99.99,,,-99.99,,2013-02-19 10:11:00,
2013-02-19 04:22:00,15.0,7.0,-100.00,West,265,7.0,23.0,71,-99.99,,,-99.99,,2013-02-19 10:22:00,
2013-02-19 04:32:00,15.0,7.0,-100.00,West,265,7.0,23.0,71,-99.99,,,-99.99,,2013-02-19 10:32:00,
2013-02-19 04:42:00,15.0,8.0,-100.00,WNW,285,14.0,24.0,73,-99.99,,,-99.99,,2013-02-19 10:42:00,
2013-02-19 04:52:00,15.0,11.0,-100.00,West,280,4.0,19.0,83,-99.99,,,-99.99,,2013-02-19 10:52:00,
2013-02-19 05:01:00,15.0,11.0,-100.00,West,280,4.0,19.0,83,-99.99,,,-99.99,,2013-02-19 11:01:00,
2013-02-19 05:11:00,13.0,6.0,-100.00,WSW,245,14.0,27.0,73,-99.99,,,-99.99,,2013-02-19 11:11:00,
2013-02-19 05:22:00,12.0,4.0,-100.00,SW,220,7.0,23.0,71,-99.99,,,-99.99,,2013-02-19 11:22:00,
2013-02-19 05:32:00,12.0,4.0,-100.00,SW,220,7.0,23.0,71,-99.99,,,-99.99,,2013-02-19 11:32:00,
2013-02-19 05:42:00,12.0,5.0,-100.00,WSW,250,4.0,21.0,73,-99.99,,,-99.99,,2013-02-19 11:42:00,
2013-02-19 05:52:00,12.0,5.0,-100.00,WSW,245,6.0,20.0,74,-99.99,,,-99.99,,2013-02-19 11:52:00,
2013-02-19 06:02:00,12.0,5.0,-100.00,WSW,245,6.0,20.0,74,-99.99,,,-99.99,,2013-02-19 12:02:00,
2013-02-19 06:12:00,12.0,5.0,-100.00,WSW,250,10.0,18.0,75,-99.99,,,-99.99,,2013-02-19 12:12:00,
2013-02-19 06:22:00,11.0,4.0,-100.00,West,260,6.0,22.0,72,-99.99,,,-99.99,,2013-02-19 12:22:00,
2013-02-19 06:32:00,11.0,4.0,-100.00,West,260,6.0,22.0,72,-99.99,,,-99.99,,2013-02-19 12:32:00,
2013-02-19 06:42:00,11.0,5.0,-100.00,West,260,10.0,24.0,74,-99.99,,,-99.99,,2013-02-19 12:42:00,
2013-02-19 06:52:00,11.0,3.0,-100.00,West,270,7.0,25.0,71,-99.99,,,-99.99,,2013-02-19 12:52:00,
2013-02-19 07:02:00,11.0,3.0,-100.00,West,270,7.0,25.0,71,-99.99,,,-99.99,,2013-02-19 13:02:00,
2013-02-19 07:11:00,10.0,3.0,-100.00,West,260,12.0,33.0,70,-99.99,,,-99.99,,2013-02-19 13:11:00,
2013-02-19 07:22:00,10.0,2.0,-100.00,SW,220,11.0,24.0,70,-99.99,,,-99.99,,2013-02-19 13:22:00,
2013-02-19 07:32:00,10.0,2.0,-100.00,SW,220,11.0,24.0,70,-99.99,,,-99.99,,2013-02-19 13:32:00,
2013-02-19 07:42:00,9.0,1.0,-100.00,West,270,13.0,29.0,69,-99.99,,,-99.99,,2013-02-19 13:42:00,
2013-02-19 07:52:00,9.0,2.0,-100.00,WSW,240,7.0,24.0,71,-99.99,,,-99.99,,2013-02-19 13:52:00,
2013-02-19 08:01:00,9.0,2.0,-100.00,WSW,240,7.0,24.0,71,-99.99,,,-99.99,,2013-02-19 14:01:00,
2013-02-19 08:11:00,9.0,2.0,-100.00,West,260,9.0,19.0,73,-99.99,,,-99.99,,2013-02-19 14:11:00,
2013-02-19 08:21:00,9.0,3.0,-100.00,SW,220,5.0,21.0,74,-99.99,,,-99.99,,2013-02-19 14:21:00,
2013-02-19 08:32:00,9.0,3.0,-100.00,SW,220,5.0,21.0,74,-99.99,,,-99.99,,2013-02-19 14:32:00,
2013-02-19 08:42:00,9.0,2.0,-100.00,West,270,9.0,21.0,71,-99.99,,,-99.99,,2013-02-19 14:42:00,
2013-02-19 08:52:00,9.0,1.0,-100.00,West,265,10.0,24.0,70,-99.99,,,-99.99,,2013-02-19 14:52:00,
2013-02-19 09:01:00,9.0,1.0,-100.00,West,265,10.0,24.0,70,-99.99,,,-99.99,,2013-02-19 15:01:00,
2013-02-19 09:11:00,9.0,2.0,-100.00,WSW,245,11.0,31.0,71,-99.99,,,-99.99,,2013-02-19 15:11:00,
2013-02-19 09:21:00,9.0,1.0,-100.00,WSW,255,13.0,24.0,68,-99.99,,,-99.99,,2013-02-19 15:21:00,
2013-02-19 09:32:00,9.0,1.0,-100.00,WSW,255,13.0,24.0,68,-99.99,,,-99.99,,2013-02-19 15:32:00,
2013-02-19 09:42:00,10.0,3.0,-100.00,SW,235,7.0,26.0,72,-99.99,,,-99.99,,2013-02-19 15:42:00,
2013-02-19 09:52:00,10.0,2.0,-100.00,West,275,7.0,23.0,70,-99.99,,,-99.99,,2013-02-19 15:52:00,
2013-02-19 10:02:00,10.0,2.0,-100.00,West,275,7.0,23.0,70,-99.99,,,-99.99,,2013-02-19 16:02:00,
2013-02-19 10:11:00,10.0,1.0,-100.00,SW,235,11.0,26.0,67,-99.99,,,-99.99,,2013-02-19 16:11:00,
2013-02-19 10:22:00,10.0,2.0,-100.00,WSW,250,7.0,24.0,68,-99.99,,,-99.99,,2013-02-19 16:22:00,
2013-02-19 10:32:00,10.0,2.0,-100.00,WSW,250,7.0,24.0,68,-99.99,,,-99.99,,2013-02-19 16:32:00,
2013-02-19 10:42:00,11.0,1.0,-100.00,WSW,245,14.0,24.0,65,-99.99,,,-99.99,,2013-02-19 16:42:00,
2013-02-19 10:52:00,11.0,3.0,-100.00,WSW,255,11.0,24.0,67,-99.99,,,-99.99,,2013-02-19 16:52:00,
2013-02-19 11:01:00,11.0,3.0,-100.00,WSW,255,11.0,24.0,67,-99.99,,,-99.99,,2013-02-19 17:01:00,
2013-02-19 11:11:00,13.0,4.0,-100.00,WNW,285,7.0,19.0,68,-99.99,,,-99.99,,2013-02-19 17:11:00,
2013-02-19 11:21:00,14.0,5.0,-100.00,SW,215,6.0,23.0,67,-99.99,,,-99.99,,2013-02-19 17:21:00,
2013-02-19 11:32:00,14.0,5.0,-100.00,SW,215,6.0,23.0,67,-99.99,,,-99.99,,2013-02-19 17:32:00,
2013-02-19 11:42:00,13.0,4.0,-100.00,West,265,12.0,26.0,66,-99.99,,,-99.99,,2013-02-19 17:42:00,
2013-02-19 11:52:00,15.0,5.0,-100.00,WSW,255,10.0,24.0,65,-99.99,,,-99.99,,2013-02-19 17:52:00,
2013-02-19 12:01:00,15.0,5.0,-100.00,WSW,255,10.0,24.0,65,-99.99,,,-99.99,,2013-02-19 18:01:00,
2013-02-19 12:11:00,16.0,5.0,-100.00,WSW,240,10.0,25.0,63,-99.99,,,-99.99,,2013-02-19 18:11:00,
2013-02-19 12:21:00,17.0,6.0,-100.00,West,260,10.0,27.0,63,-99.99,,,-99.99,,2013-02-19 18:21:00,
2013-02-19 12:32:00,17.0,6.0,-100.00,West,260,10.0,27.0,63,-99.99,,,-99.99,,2013-02-19 18:32:00,
2013-02-19 12:42:00,17.0,6.0,-100.00,WSW,255,14.0,23.0,62,-99.99,,,-99.99,,2013-02-19 18:42:00,
2013-02-19 12:52:00,19.0,9.0,-100.00,WSW,245,9.0,20.0,63,-99.99,,,-99.99,,2013-02-19 18:52:00,
2013-02-19 13:01:00,19.0,9.0,-100.00,WSW,245,9.0,20.0,63,-99.99,,,-99.99,,2013-02-19 19:01:00,
2013-02-19 13:11:00,19.0,8.0,-100.00,WSW,245,10.0,26.0,63,-99.99,,,-99.99,,2013-02-19 19:11:00,
2013-02-19 13:21:00,21.0,9.0,-100.00,West,265,9.0,24.0,61,-99.99,,,-99.99,,2013-02-19 19:21:00,
2013-02-19 13:32:00,21.0,9.0,-100.00,West,265,9.0,24.0,61,-99.99,,,-99.99,,2013-02-19 19:32:00,
2013-02-19 13:42:00,19.0,7.0,-100.00,West,270,10.0,27.0,59,-99.99,,,-99.99,,2013-02-19 19:42:00,
2013-02-19 13:52:00,20.0,8.0,-100.00,WSW,245,12.0,30.0,59,-99.99,,,-99.99,,2013-02-19 19:52:00,
2013-02-19 14:01:00,20.0,8.0,-100.00,WSW,245,12.0,30.0,59,-99.99,,,-99.99,,2013-02-19 20:01:00,
2013-02-19 14:12:00,21.0,9.0,-100.00,West,260,11.0,26.0,59,-99.99,,,-99.99,,2013-02-19 20:12:00,
2013-02-19 14:21:00,21.0,8.0,-100.00,WSW,255,9.0,33.0,57,-99.99,,,-99.99,,2013-02-19 20:21:00,
2013-02-19 14:32:00,21.0,8.0,-100.00,WSW,255,9.0,33.0,57,-99.99,,,-99.99,,2013-02-19 20:32:00,
2013-02-19 14:42:00,22.0,9.0,-100.00,West,265,10.0,25.0,57,-99.99,,,-99.99,,2013-02-19 20:42:00,
2013-02-19 14:52:00,22.0,9.0,-100.00,West,260,8.0,26.0,56,-99.99,,,-99.99,,2013-02-19 20:52:00,
2013-02-19 15:02:00,22.0,9.0,-100.00,West,260,8.0,26.0,56,-99.99,,,-99.99,,2013-02-19 21:02:00,
2013-02-19 15:11:00,23.0,9.0,-100.00,West,275,7.0,21.0,56,-99.99,,,-99.99,,2013-02-19 21:11:00,
2013-02-19 15:21:00,24.0,10.0,-100.00,West,265,11.0,24.0,55,-99.99,,,-99.99,,2013-02-19 21:21:00,
2013-02-19 15:32:00,24.0,10.0,-100.00,West,265,11.0,24.0,55,-99.99,,,-99.99,,2013-02-19 21:32:00,
2013-02-19 15:42:00,23.0,8.0,-100.00,WSW,245,15.0,23.0,51,-99.99,,,-99.99,,2013-02-19 21:42:00,
2013-02-19 15:52:00,23.0,7.0,-100.00,WSW,245,13.0,26.0,49,-99.99,,,-99.99,,2013-02-19 21:52:00,
2013-02-19 16:02:00,23.0,7.0,-100.00,WSW,245,13.0,26.0,49,-99.99,,,-99.99,,2013-02-19 22:02:00,
2013-02-19 16:11:00,23.0,8.0,-100.00,WSW,255,10.0,30.0,51,-99.99,,,-99.99,,2013-02-19 22:11:00,
2013-02-19 16:21:00,23.0,8.0,-100.00,West,265,11.0,25.0,51,-99.99,,,-99.99,,2013-02-19 22:21:00,
2013-02-19 16:32:00,23.0,8.0,-100.00,West,265,11.0,25.0,51,-99.99,,,-99.99,,2013-02-19 22:32:00,
2013-02-19 16:41:00,23.0,8.0,-100.00,West,260,7.0,21.0,52,-99.99,,,-99.99,,2013-02-19 22:41:00,
2013-02-19 16:52:00,23.0,8.0,-100.00,WSW,250,13.0,27.0,52,-99.99,,,-99.99,,2013-02-19 22:52:00,
2013-02-19 17:01:00,23.0,8.0,-100.00,WSW,250,13.0,27.0,52,-99.99,,,-99.99,,2013-02-19 23:01:00,
2013-02-19 17:11:00,22.0,6.0,-100.00,WSW,250,13.0,25.0,50,-99.99,,,-99.99,,2013-02-19 23:11:00,
2013-02-19 17:21:00,22.0,7.0,-100.00,WNW,285,11.0,26.0,51,-99.99,,,-99.99,,2013-02-19 23:21:00,
2013-02-19 17:32:00,22.0,7.0,-100.00,WNW,285,11.0,26.0,51,-99.99,,,-99.99,,2013-02-19 23:32:00,
2013-02-19 17:42:00,22.0,7.0,-100.00,West,275,9.0,22.0,53,-99.99,,,-99.99,,2013-02-19 23:42:00,
2013-02-19 17:52:00,21.0,6.0,-100.00,West,265,9.0,23.0,53,-99.99,,,-99.99,,2013-02-19 23:52:00,
2013-02-19 18:01:00,21.0,6.0,-100.00,West,265,9.0,23.0,53,-99.99,,,-99.99,,2013-02-20 00:01:00,
2013-02-19 18:11:00,20.0,6.0,-100.00,West,270,11.0,23.0,53,-99.99,,,-99.99,,2013-02-20 00:11:00,
2013-02-19 18:21:00,20.0,7.0,-100.00,West,270,6.0,20.0,56,-99.99,,,-99.99,,2013-02-20 00:21:00,
2013-02-19 18:32:00,20.0,7.0,-100.00,West,270,6.0,20.0,56,-99.99,,,-99.99,,2013-02-20 00:32:00,
2013-02-19 18:42:00,19.0,6.0,-100.00,WSW,245,7.0,21.0,56,-99.99,,,-99.99,,2013-02-20 00:42:00,
2013-02-19 18:52:00,19.0,6.0,-100.00,West,260,11.0,21.0,55,-99.99,,,-99.99,,2013-02-20 00:52:00,
2013-02-19 19:02:00,19.0,6.0,-100.00,West,260,11.0,21.0,55,-99.99,,,-99.99,,2013-02-20 01:02:00,
2013-02-19 19:11:00,19.0,6.0,-100.00,WSW,245,9.0,26.0,56,-99.99,,,-99.99,,2013-02-20 01:11:00,
2013-02-19 19:21:00,18.0,7.0,-100.00,West,270,8.0,14.0,60,-99.99,,,-99.99,,2013-02-20 01:21:00,
2013-02-19 19:32:00,18.0,7.0,-100.00,West,270,8.0,14.0,60,-99.99,,,-99.99,,2013-02-20 01:32:00,
2013-02-19 19:42:00,18.0,7.0,-100.00,WSW,250,8.0,19.0,61,-99.99,,,-99.99,,2013-02-20 01:42:00,
2013-02-19 19:52:00,18.0,7.0,-100.00,West,280,5.0,14.0,61,-99.99,,,-99.99,,2013-02-20 01:52:00,
2013-02-19 20:01:00,18.0,7.0,-100.00,West,280,5.0,14.0,61,-99.99,,,-99.99,,2013-02-20 02:01:00,
2013-02-19 20:11:00,18.0,8.0,-100.00,WSW,255,4.0,14.0,64,-99.99,,,-99.99,,2013-02-20 02:11:00,
2013-02-19 20:21:00,18.0,7.0,-100.00,WSW,250,4.0,14.0,63,-99.99,,,-99.99,,2013-02-20 02:21:00,
2013-02-19 20:32:00,18.0,7.0,-100.00,WSW,250,4.0,14.0,63,-99.99,,,-99.99,,2013-02-20 02:32:00,
2013-02-19 20:42:00,17.0,7.0,-100.00,West,280,6.0,15.0,63,-99.99,,,-99.99,,2013-02-20 02:42:00,
2013-02-19 20:52:00,17.0,6.0,-100.00,SW,235,9.0,20.0,61,-99.99,,,-99.99,,2013-02-20 02:52:00,
2013-02-19 21:02:00,17.0,6.0,-100.00,SW,235,9.0,20.0,61,-99.99,,,-99.99,,2013-02-20 03:02:00,
2013-02-19 21:12:00,17.0,7.0,-100.00,West,265,9.0,16.0,64,-99.99,,,-99.99,,2013-02-20 03:12:00,
2013-02-19 21:22:00,17.0,7.0,-100.00,WSW,245,6.0,17.0,64,-99.99,,,-99.99,,2013-02-20 03:22:00,
2013-02-19 21:32:00,17.0,7.0,-100.00,WSW,245,6.0,17.0,64,-99.99,,,-99.99,,2013-02-20 03:32:00,
2013-02-19 21:42:00,17.0,6.0,-100.00,West,265,8.0,21.0,63,-99.99,,,-99.99,,2013-02-20 03:42:00,
2013-02-19 21:52:00,16.0,6.0,-100.00,WNW,300,9.0,22.0,63,-99.99,,,-99.99,,2013-02-20 03:52:00,
2013-02-19 22:01:00,16.0,6.0,-100.00,WNW,300,9.0,22.0,63,-99.99,,,-99.99,,2013-02-20 04:01:00,
2013-02-19 22:11:00,15.0,5.0,-100.00,WNW,295,11.0,21.0,63,-99.99,,,-99.99,,2013-02-20 04:11:00,
2013-02-19 22:21:00,15.0,4.0,-100.00,West,280,7.0,18.0,63,-99.99,,,-99.99,,2013-02-20 04:21:00,
2013-02-19 22:31:00,15.0,4.0,-100.00,West,280,7.0,18.0,63,-99.99,,,-99.99,,2013-02-20 04:31:00,
2013-02-19 22:42:00,14.0,4.0,-100.00,West,275,8.0,19.0,63,-99.99,,,-99.99,,2013-02-20 04:42:00,
2013-02-19 22:52:00,13.0,4.0,-100.00,WSW,255,6.0,16.0,65,-99.99,,,-99.99,,2013-02-20 04:52:00,
2013-02-19 23:02:00,13.0,4.0,-100.00,WSW,255,6.0,16.0,65,-99.99,,,-99.99,,2013-02-20 05:02:00,
2013-02-19 23:12:00,13.0,4.0,-100.00,WNW,300,9.0,18.0,68,-99.99,,,-99.99,,2013-02-20 05:12:00,
2013-02-19 23:22:00,12.0,4.0,-100.00,WNW,300,12.0,20.0,69,-99.99,,,-99.99,,2013-02-20 05:22:00,
2013-02-19 23:32:00,12.0,4.0,-100.00,WNW,300,12.0,20.0,69,-99.99,,,-99.99,,2013-02-20 05:32:00,
2013-02-19 23:43:00,11.0,2.0,-100.00,NNW,330,9.0,18.0,68,-99.99,,,-99.99,,2013-02-20 05:43:00,
2013-02-19 23:52:00,10.0,2.0,-100.00,WNW,300,9.0,15.0,69,-99.99,,,-99.99,,2013-02-20 05:52:00,